{"data":{"norad_id":62179,"intl_designator":"2024-225S","name":"STARLINK-32584","alt_names":[],"object_type":"PAYLOAD","status":"ACTIVE","operator":null,"country":"US","launch_date":"2024-11-30","launch_site_code":"AFWTR","launch_vehicle":null,"mission":null,"orbit_class":"UNKNOWN","rcs_meters":null,"size_class":null,"mass_kg":null,"dimensions":null,"purposes":["comms"],"wikipedia_slug":null,"has_3d_model":false,"image_url":null,"decayed_at":null,"tle_current":{"epoch":"2026-05-24T22:00:31.576032Z","epoch_age_seconds":86234,"freshness":"FRESH","line1":"1 62179U 24225S   26144.91703213  .00002835  00000+0  24529-3 0  9995","line2":"2 62179  70.0017 332.1744 0002019 271.5226  88.5702 14.98335691 81292","mean_motion":14.98335691,"eccentricity":0.0002019,"inclination_deg":70.0017,"raan_deg":332.1744,"arg_perigee_deg":271.5226,"mean_anomaly_deg":88.5702,"bstar":0.00024529,"rev_number":8129,"period_min":96.106634090718,"perigee_km":570.63505166061,"apogee_km":573.44153244354,"semimajor_km":6950.1752920521,"source":"CELESTRAK","updated_at":"2026-05-25T13:38:19.603967Z"}}}